Haines, AK

7:46 PM AKST on February 11, 2016 (GMT -0900)
Haines

Weather History for PAHN - January, 2013

Change the Weather History Date:

Saturday, January 5, 2013

  Actual Average Record
Temperature  
Mean Temperature 30 °F -  
Max Temperature 35 °F 26 °F 43 °F (1985)
Min Temperature 26 °F 19 °F -7 °F (1975)
Degree Days  
Heating Degree Days 35    
Moisture  
Dew Point 27 °F    
Average Humidity 93    
Maximum Humidity 100    
Minimum Humidity 85    
Precipitation  
Precipitation 0.03 in - - ()
Sea Level Pressure  
Sea Level Pressure 29.71 in    
Wind  
Wind Speed 12 mph (WNW)    
Max Wind Speed 18 mph    
Max Gust Speed 21 mph    
Visibility 4 miles    
Events Snow    
Averages and records for this station are not official NWS values.
T = Trace of Precipitation, MM = Missing Value Source: NWS Daily Summary

Daily Weather History Graph

Daily Weather History Graph

Search for Another Location

Airport or City:

Trip Planner

Search our weather history database for the weather conditions in past years. The results will help you decide how hot, cold, wet, or windy it might be!

Date:

Astronomy

Jan. 05, 2013 Rise Set
Actual Time 8:54 AM AKST 3:21 PM AKST
Civil Twilight 8:01 AM AKST 4:14 PM AKST
Nautical Twilight 7:07 AM AKST 5:08 PM AKST
Astronomical Twilight 6:17 AM AKST 5:58 PM AKST
Moon 1:16 AM AKST (1/5) 11:02 AM AKST (1/5)
Length of Visible Light 8h 13m
Length of Day
6h 26m
Last Quarter, 42% of the Moon is Illuminated
Jan 5
Last Quarter
Jan 11
New
Jan 18
First Quarter
Jan 26
Full
Feb 3
Last Quarter

Hourly Weather History & Observations

Time (AKST) Temp. Windchill Dew Point Humidity Pressure Visibility Wind Dir Wind Speed Gust Speed Precip Events Conditions
12:54 AM 26.1 °F 14.0 °F 23.0 °F 88% 29.97 in 10.0 mi WNW 15.0 mph - N/A   Overcast
1:54 AM 26.1 °F 12.7 °F 24.1 °F 92% 29.94 in 10.0 mi WNW 18.4 mph - N/A   Overcast
3:54 AM 27.0 °F 13.9 °F 24.1 °F 89% 29.88 in 10.0 mi WNW 18.4 mph - N/A   Overcast
4:54 AM 28.0 °F 15.7 °F 24.1 °F 85% 29.85 in 10.0 mi WNW 17.3 mph - N/A   Overcast
5:54 AM 28.0 °F 16.5 °F 25.0 °F 88% 29.83 in 10.0 mi WNW 15.0 mph - N/A   Overcast
6:54 AM 27.0 °F 14.7 °F 24.1 °F 89% 29.81 in 10.0 mi WNW 16.1 mph - N/A   Overcast
7:54 AM 27.0 °F 15.2 °F 25.0 °F 92% 29.81 in 3.0 mi WNW 15.0 mph - 0.00 in Snow Light Snow
8:01 AM 28.4 °F 18.0 °F 24.8 °F 86% 29.80 in 2.5 mi WNW 12.7 mph - 0.00 in Snow Light Snow
8:36 AM 26.6 °F 15.2 °F 24.8 °F 93% 29.79 in 3.0 mi West 13.8 mph - 0.00 in Snow Light Snow
8:54 AM 27.0 °F 16.1 °F 25.0 °F 92% 29.80 in 2.5 mi WNW 12.7 mph - 0.00 in Snow Light Snow
9:20 AM 26.6 °F 14.7 °F 24.8 °F 93% 29.77 in 1.5 mi WNW 15.0 mph - 0.00 in Snow Light Snow
9:44 AM 26.6 °F 15.7 °F 24.8 °F 93% 29.77 in 2.5 mi West 12.7 mph - 0.01 in Snow Light Snow
9:54 AM 27.0 °F 16.1 °F 25.0 °F 92% 29.78 in 1.8 mi WNW 12.7 mph - 0.01 in Snow Light Snow
10:54 AM 27.0 °F 15.6 °F 26.1 °F 96% 29.76 in 1.0 mi WNW 13.8 mph - 0.00 in Snow Light Snow
11:54 AM 28.0 °F 18.1 °F 26.1 °F 92% 29.73 in 1.5 mi WNW 11.5 mph - 0.01 in Snow Light Snow
12:09 PM 28.4 °F 18.5 °F 26.6 °F 93% 29.71 in 2.5 mi WNW 11.5 mph - 0.00 in Snow Light Snow
12:20 PM 28.4 °F 18.5 °F 26.6 °F 93% 29.71 in 1.2 mi WNW 11.5 mph - 0.00 in Snow Light Snow
12:34 PM 28.4 °F 18.5 °F 26.6 °F 93% 29.70 in 2.0 mi WNW 11.5 mph - 0.00 in Snow Light Snow
12:41 PM 28.4 °F 18.0 °F 26.6 °F 93% 29.70 in 1.5 mi WNW 12.7 mph - 0.00 in Snow Light Snow
12:54 PM 28.0 °F 18.1 °F 26.1 °F 92% 29.71 in 1.5 mi WNW 11.5 mph - 0.00 in Snow Light Snow
1:41 PM 28.4 °F 18.0 °F 26.6 °F 93% 29.67 in 3.0 mi WNW 12.7 mph - 0.00 in Snow Light Snow
1:54 PM 28.9 °F 18.6 °F 27.0 °F 92% 29.68 in 5.0 mi WNW 12.7 mph - 0.00 in Snow Light Snow
2:54 PM 28.9 °F 19.2 °F 27.0 °F 92% 29.66 in 4.0 mi WNW 11.5 mph - 0.00 in Snow Light Snow
3:16 PM 28.4 °F 17.5 °F 26.6 °F 93% 29.65 in 2.5 mi WNW 13.8 mph - 0.00 in Snow Light Snow
3:34 PM 28.4 °F 18.0 °F 26.6 °F 93% 29.65 in 3.0 mi West 12.7 mph - 0.00 in Snow Light Snow
3:36 PM 28.4 °F 18.5 °F 26.6 °F 93% 29.65 in 2.5 mi West 11.5 mph - 0.00 in Snow Light Snow
3:54 PM 28.0 °F 18.6 °F 27.0 °F 96% 29.66 in 2.0 mi WNW 10.4 mph - 0.01 in Snow Light Snow
4:06 PM 28.4 °F 19.7 °F 26.6 °F 93% 29.65 in 1.8 mi WNW 9.2 mph - 0.00 in Snow Light Snow
4:13 PM 28.4 °F 19.7 °F 26.6 °F 93% 29.65 in 2.0 mi WNW 9.2 mph - 0.00 in Snow Light Snow
4:54 PM 30.0 °F 24.1 °F 28.9 °F 96% 29.66 in 3.0 mi WNW 5.8 mph - 0.00 in Snow Light Snow
5:12 PM 30.2 °F 26.7 °F 28.4 °F 93% 29.65 in 3.0 mi WNW 3.5 mph - 0.00 in Snow Light Snow
5:22 PM 28.4 °F 24.6 °F 28.4 °F 100% 29.65 in 5.0 mi West 3.5 mph - 0.00 in Snow Light Snow
5:38 PM 28.4 °F - 26.6 °F 93% 29.64 in 5.0 mi Calm Calm - 0.00 in Snow Light Snow
5:46 PM 28.4 °F - 26.6 °F 93% 29.64 in 4.0 mi Calm Calm - 0.00 in Snow Light Snow
5:54 PM 28.0 °F - 28.0 °F 100% 29.65 in 3.0 mi Calm Calm - 0.00 in Snow Light Snow
6:54 PM 28.9 °F - 28.0 °F 96% 29.65 in 3.0 mi Calm Calm - 0.00 in Snow Light Snow
7:04 PM 28.4 °F 23.3 °F 26.6 °F 93% 29.64 in 2.5 mi WNW 4.6 mph - 0.00 in Snow Light Snow
7:19 PM 28.4 °F - 28.4 °F 100% 29.64 in 4.0 mi Calm Calm - 0.00 in Snow Light Snow
7:26 PM 28.4 °F 24.6 °F 26.6 °F 93% 29.64 in 6.0 mi WNW 3.5 mph - 0.00 in Snow Light Snow
7:54 PM 28.0 °F - 28.0 °F 100% 29.65 in 3.0 mi Calm Calm - 0.00 in Snow Light Snow
8:07 PM 28.4 °F - 26.6 °F 93% 29.64 in 3.0 mi Calm Calm - 0.00 in Snow Light Snow
8:54 PM 28.9 °F - 28.0 °F 96% 29.65 in 5.0 mi Calm Calm - 0.00 in Snow Light Snow
9:41 PM 30.2 °F 24.3 °F 30.2 °F 100% 29.64 in 7.0 mi East 5.8 mph - 0.00 in   Overcast
9:54 PM 32.0 °F 27.5 °F 30.9 °F 96% 29.65 in 5.0 mi East 4.6 mph - 0.00 in Snow Light Snow
10:29 PM 33.8 °F 25.8 °F 32.0 °F 93% 29.65 in 10.0 mi East 10.4 mph - 0.00 in   Overcast
10:54 PM 34.0 °F 27.2 °F 32.0 °F 92% 29.65 in 10.0 mi ENE 8.1 mph - 0.00 in   Overcast
11:54 PM 35.1 °F 26.9 °F 33.1 °F 92% 29.65 in 10.0 mi ENE 11.5 mph 20.7 mph 0.00 in   Overcast